Other Public Products
Issued by NWS Grand Forks, ND

Home | Current Version | Previous Version | Graphics & Text | Print | Product List | Glossary On
Versions: 1 2 3 4 5 6 7 8 9 10 11 12 13 14 15 16 17 18 19 20 21 22 23 24 25 26 27 28 29 30 31 32 33 34 35 36 37 38 39 40 41 42 43 44 45 46 47 48 49 50
000
FPUS83 KFGF 251310
OPUFGF
PRAIRIE TO PINES WEATHER ROUNDUP
NATIONAL WEATHER SERVICE EASTERN NORTH DAKOTA/GRAND FORKS ND
800 AM CDT SUN JUN 25 2017

 **SATELLITE DATA USED TO AUGMENT SKY COVER AT AUTOMATED STATIONS**
 *****  WEATHER ACROSS EASTERN NORTH DAKOTA  *****

CITY           SKY/WX    TMP DP  RH WIND       PRES   REMARKS
GRAND FORKS    FAIR      52  45  77 NW8       30.23R
GRAND FORKS AF FAIR      52  44  76 NW3       30.23S
GRAND CITY NWS NOT AVBL
BUXTON         NOT AVBL
DEVILS LAKE    FAIR      50  46  86 NW6       30.26R
FARGO          FAIR      54  43  66 NW12      30.24R
WAHPETON ARPT  FAIR      52  41  66 NW9       30.25R
$$

 *****  WEATHER ACROSS CENTRAL AND WESTERN NORTH DAKOTA  *****

CITY           SKY/WX    TMP DP  RH WIND       PRES   REMARKS
JAMESTOWN      FAIR      52  45  77 NW9       30.26R
BISMARCK       CLOUDY    47  41  80 CALM      30.29F
MINOT          PTSUNNY   54  42  64 SW8       30.24S
MINOT AFB      PTSUNNY   53  45  74 CALM      30.24R
GARRISON         N/A     50  46  86 W6        30.27S
WILLISTON      CLOUDY    52  45  77 CALM      30.28S
DICKINSON      FAIR      54  34  46 SW12      30.24F
HETTINGER      FAIR      51  35  54 CALM      30.31F
$$

 *****  OTHER OBSERVATIONS NORTHEAST NORTH DAKOTA  *****

CITY           SKY/WX    TMP DP  RH WIND       PRES   REMARKS
WALHALLA       NOT AVBL
LANGDON        CLOUDY    48  48 100 NW6       30.25R
CAVALIER       NOT AVBL
GRAFTON        FAIR      52  45  76 N9        30.25S
CANDO          NOT AVBL
FORT TOTTEN      N/A     49  48  97 CALM      29.95S
ROLLA            N/A     50  46  87 N8        30.26S
RUGBY          NOT AVBL
 ***** THE ABOVE OBSERVATIONS ARE NON NWS ARE NOT QUALITY
        CONTROLLED AND MAY MIS-REPORT RAIN FOR SNOW...
$$

 *****  OTHER OBSERVATIONS SOUTHEAST NORTH DAKOTA *****

CITY           SKY/WX    TMP DP  RH WIND       PRES   REMARKS
COOPERSTOWN    FAIR      52  48  87 NW6       30.26R
VALLEY CITY    FAIR      52  50  93 N6        30.27F
OAKES          NOT AVBL
GWINNER        SUNNY     52  46  82 NW8       30.27S
SHEYENNE NWR     N/A     53  47  79 NW7       29.95S
BUFFALO        NOT AVBL
WYNDMERE       NOT AVBL
 ***** THE ABOVE OBSERVATIONS ARE NON NWS ARE NOT QUALITY
       CONTROLLED AND MAY MIS-REPORT RAIN FOR SNOW...
$$

  *****  WEATHER ACROSS NORTHERN MINNESOTA  *****

CITY           SKY/WX    TMP DP  RH WIND       PRES   REMARKS
FLAG ISLAND    PTSUNNY   52  48  87 NW9       30.14R
WARROAD        FAIR      48  45  87 NW9       30.17R
ROSEAU         FAIR      48  45  87 N7        30.18R
HALLOCK        FAIR      50  46  87 NW7       30.22R
THF RVR FALLS  FAIR      49  44  83 NW10      30.21R
HALSTAD        NOT AVBL
FOSSTON        FAIR      50  46  87 NW8       30.20R
BAUDETTE       CLOUDY    53  47  79 N5        30.14R
WASKISH        CLOUDY    50  48  93 NW8       30.15R
CROOKSTON      FAIR      48  45  87 N8        30.23R
$$
  *****  WEATHER ACROSS CENTRAL AND WEST MINNESOTA  *****

CITY           SKY/WX    TMP DP  RH WIND       PRES   REMARKS
BEMIDJI        CLOUDY    49  47  93 NW14      30.16R
PARK RAPIDS    PTSUNNY   53  43  68 NW16      30.16R
WADENA         FAIR      50  46  87 NW15G22   30.17S
DETROIT LAKES  FAIR      48  43  81 NW14      30.21S
MOORHEAD       FAIR      52  43  71 NW13      30.24R
FERGUS FALLS   FAIR      50  43  76 NW14      30.22R
ELBOW LAKE     FAIR      50  44  79 W14G21    30.22S
MORRIS MN      FAIR      54  45  71 NW16      30.22R
STAPLES        FAIR      52  45  76 NW15G21   30.15S
WHEATON        FAIR      54  45  71 NW12      30.26S
$$
  *****  WEATHER ELSEWHERE ACROSS MINNESOTA  *****

CITY           SKY/WX    TMP DP  RH WIND       PRES   REMARKS
DULUTH         CLOUDY    54  52  93 NW7       30.03R
INTRNTL FALLS  HVY RAIN  50  48  93 NW9       30.10R FOG
ELY            LGT RAIN  54  52  94 NW5       30.02S
CLOQUET        CLOUDY    55  52  88 NW6       30.04S
BRAINERD       LGT RAIN  51  49  92 NW15G25   30.12R
HIBBING        LGT RAIN  52  51  97 NW9       30.05R FOG
ALEXANDRIA     FAIR      52  45  77 NW13      30.20R
SAINT CLOUD    CLOUDY    51  50  96 NW14G22   30.13R
MINNEAPOLIS    CLOUDY    56  48  74 NW13      30.12R
$$

  *****  WEATHER ACROSS SOUTH DAKOTA  *****

CITY           SKY/WX    TMP DP  RH WIND       PRES   REMARKS
SIOUX FALLS    FAIR      55  48  77 W8        30.29S
BROOKINGS      FAIR      54  47  77 NW12      30.28R
WATERTOWN      FAIR      53  47  79 NW12      30.26S
HURON          FAIR      53  45  74 NW12      30.32R
SISSETON         N/A     56  47  71 NW17      30.25R
ABERDEEN       FAIR      53  42  66 NW5       30.30R
MITCHELL       NOT AVBL
PIERRE         NOT AVBL
MOBRIDGE       FAIR      52  43  71 NW3       30.29R
RAPID CITY     FAIR      52  33  48 SW6       30.35S
$$

  *****  SOME WEATHER IN NEARBY STATES *****

CITY           SKY/WX    TMP DP  RH WIND       PRES   REMARKS
GLASGOW MT     FAIR      50  36  58 CALM      30.27R
GREAT FALLS MT FAIR      51  43  74 S5        30.32S
CHEYENNE WY    FAIR      49  38  65 NE6       30.41R
SCOTTSBLUFF NE CLOUDY    57  39  51 S6        30.37F
OMAHA NE       FAIR      60  46  59 N3        30.30R
DES MOINES IA  FAIR      59  46  62 NW12      30.25R
DAVENPORT IA   FAIR      58  49  72 W10       30.17R
CHICAGO IL     FAIR      60  49  66 W12       30.10R
EAU CLAIRE WI  CLOUDY    55  50  83 W10       30.07R
LA CROSSE WI   CLOUDY    60  50  69 W10       30.10R
$$

  *****  SOME NATIONAL WEATHER *****

CITY           SKY/WX    TMP DP  RH WIND       PRES   REMARKS
LA GUARDIA NY  PTSUNNY   76  59  55 CALM      29.98S
RALEIGH NC     PTSUNNY   76  70  82 VRB5      30.06S
ATLANTA GA     PTSUNNY   69  64  84 NW14      30.15R
NEW ORLEANS LA PTSUNNY   80  77  90 NE6       30.11R
OKLAHOMA CITY  FAIR      70  59  68 S5        30.26R
ALBUQUERQUE NM FAIR      68  53  58 N6        30.30R
SALT LAKE CITY FAIR      67  41  38 CALM      30.17S
LOS ANGELES CA FAIR      63  61  93 CALM      29.88R
BOISE ID       FAIR      63  41  44 SE13      30.12R
SEATTLE WA     FAIR      67  51  56 NW3       29.96R
$$

*** WEATHER ACROSS MANITOBA...SASKATCHEWAN AND ONTARIO ***
                ***ONTARIO***

CITY           SKY/WX    TMP DP  RH WIND       PRES   REMARKS
GERALDTON      CLOUDY    48  43  81 NE6       30.05R
THUNDER BAY    PTSUNNY   57  48  72 NE6       30.00R
SIOUX LOOKOUT  CLOUDY    50  46  87 N3        30.09R
TORONTO        MOSUNNY   66  55  68 W12       29.94R
BIG TROUT LK   MOSUNNY   52  45  76 S6        30.05S
PICKLE LAKE    PTSUNNY   52  41  66 NW2       30.09R
DRYDEN         CLOUDY    48  46  93 N7        30.10R
KENORA         CLOUDY    50  45  81 NW6       30.14R
$$
                *** MANITOBA***

CITY           SKY/WX    TMP DP  RH WIND       PRES   REMARKS
BRANDON        MOSUNNY   50  46  87 N2        30.26R
DAUPHIN        SUNNY     50  46  87 W7        30.25R
ISLAND LAKE    MOSUNNY   55  46  71 W6        30.12R
PILOT MOUND      N/A     46  45  93 NW6         N/A
THE PAS        MOSUNNY   54  45  71 NW6       30.23R
THOMPSON       PTSUNNY   54  43  66 W6        30.11R
WINNIPEG       PTSUNNY   48  45  87 NW8       30.22R
LYNN LAKE      SUNNY     57  45  62 NW8       30.17S
CHURCHILL      PTSUNNY   46  43  87 N17G24    30.02R
GILLAM         PTSUNNY   57  45  62 W9        30.03F
$$
                ***SASKATCHEWAN***

CITY           SKY/WX    TMP DP  RH WIND       PRES   REMARKS
ESTEVAN        PTSUNNY   52  48  87 NE3       30.25S
KINDERSLEY     MOSUNNY   50  48  93 NE6       30.29R
LLOYDMINSTER   MOSUNNY   52  52 100 CALM      30.28S
PRINCE ALBERT  MOSUNNY   52  46  82 CALM      30.30S
REGINA         MOSUNNY   54  45  71 E10       30.27S
YORKTON        SUNNY     50  46  87 W3        30.27S



USA.gov is the U.S. government's official web portal to all federal, state and local government web resources and services.